KLM135 ENBR-EKCH

Flight info

Callsign KLM135
Flight time 1h 5m
Altitude 33000
Route TUXIL DCT ZOL DCT TESPI
Aircraft A320/M-SDE3FGHIRWY/LB1

Departure

Time 2026-05-04 10:51
Airport Bergen Airport, Flesland (ENBR)

Arrival

Time 2026-05-04 11:57
Airport Copenhagen Kastrup Airport (EKCH)
Time Latitude Longitude Altitude Speed Heading
2026-05-04 10:37 60.28403 5.22674 160 ft 0 kts 96°
2026-05-04 10:46 60.28405 5.22635 160 ft 3 kts 96°
2026-05-04 10:47 60.28409 5.22595 160 ft 3 kts 129°
2026-05-04 10:47 60.28421 5.22575 160 ft 0 kts 171°
2026-05-04 10:47 60.28411 5.22579 160 ft 3 kts 171°
2026-05-04 10:47 60.28396 5.22583 159 ft 0 kts 171°
2026-05-04 10:49 60.28383 5.22587 159 ft 4 kts 171°
2026-05-04 10:50 60.28337 5.22599 158 ft 9 kts 180°
2026-05-04 10:51 60.31070 5.21199 933 ft 149 kts 347°
2026-05-04 10:52 60.32099 5.20860 1558 ft 155 kts 349°
2026-05-04 10:52 60.33222 5.20482 1886 ft 177 kts 348°
2026-05-04 10:52 60.34518 5.20042 2231 ft 201 kts 349°
2026-05-04 10:54 60.46482 5.15108 7864 ft 266 kts 326°
2026-05-04 10:54 60.47872 5.12795 8797 ft 255 kts 300°
2026-05-04 10:56 60.41322 4.97677 13453 ft 343 kts 181°
2026-05-04 10:56 60.38957 4.98239 14062 ft 350 kts 180°
2026-05-04 10:56 60.36527 4.98888 14691 ft 354 kts 180°
2026-05-04 10:57 60.34069 4.99533 15351 ft 357 kts 181°
2026-05-04 10:57 60.31593 5.00140 16024 ft 360 kts 183°
2026-05-04 10:57 60.29102 5.00708 16682 ft 362 kts 184°
2026-05-04 10:57 60.26579 5.01431 17380 ft 371 kts 180°
2026-05-04 10:58 60.24031 5.02431 18053 ft 374 kts 180°
2026-05-04 10:58 60.21461 5.03433 18652 ft 378 kts 181°
2026-05-04 10:58 60.18858 5.04448 19215 ft 384 kts 181°
2026-05-04 10:58 60.16217 5.05626 19772 ft 397 kts 174°
2026-05-04 10:59 60.13582 5.07657 20293 ft 412 kts 167°
2026-05-04 10:59 60.10929 5.09955 20809 ft 418 kts 167°
2026-05-04 10:59 60.08246 5.12279 21304 ft 423 kts 167°
2026-05-04 10:59 60.05526 5.14624 21738 ft 428 kts 166°
2026-05-04 11:00 60.02811 5.16953 22268 ft 432 kts 166°
2026-05-04 11:01 59.82772 5.33965 25330 ft 458 kts 168°
2026-05-04 11:02 59.79760 5.35867 25727 ft 450 kts 177°
2026-05-04 11:02 59.76699 5.36877 26052 ft 442 kts 185°
2026-05-04 11:05 59.31599 5.47899 30810 ft 491 kts 177°
2026-05-04 11:06 59.28248 5.49208 31237 ft 490 kts 176°
2026-05-04 11:06 59.24907 5.50531 31705 ft 488 kts 176°
2026-05-04 11:06 59.21584 5.51822 32176 ft 485 kts 177°
2026-05-04 11:06 59.18278 5.53064 32584 ft 482 kts 176°
2026-05-04 11:08 58.95672 5.61092 32912 ft 468 kts 177°
2026-05-04 11:10 58.76157 5.84877 32924 ft 493 kts 140°
2026-05-04 11:12 58.56197 6.20961 32918 ft 493 kts 140°
2026-05-04 11:12 58.51188 6.29930 32925 ft 493 kts 140°
2026-05-04 11:13 58.46181 6.38869 32922 ft 492 kts 140°
2026-05-04 11:13 58.41165 6.47788 32927 ft 492 kts 140°
2026-05-04 11:14 58.36144 6.56676 32929 ft 492 kts 140°
2026-05-04 11:16 58.16110 6.91785 32931 ft 489 kts 140°
2026-05-04 11:16 58.11091 7.00482 32925 ft 489 kts 140°
2026-05-04 11:17 58.06060 7.09167 32925 ft 489 kts 140°
2026-05-04 11:19 57.85954 7.43589 32940 ft 486 kts 140°
2026-05-04 11:19 57.80966 7.52033 32945 ft 485 kts 140°
2026-05-04 11:20 57.75947 7.60499 32936 ft 485 kts 140°
2026-05-04 11:20 57.70930 7.68931 32935 ft 485 kts 140°
2026-05-04 11:22 57.50905 8.02287 32947 ft 480 kts 140°
2026-05-04 11:23 57.45915 8.10490 32947 ft 479 kts 140°
2026-05-04 11:25 57.28523 8.38924 32956 ft 475 kts 140°
2026-05-04 11:25 57.23555 8.46950 32952 ft 474 kts 140°
2026-05-04 11:27 57.01256 8.82750 32940 ft 471 kts 140°
2026-05-04 11:28 56.96298 8.90623 32948 ft 470 kts 141°
2026-05-04 11:28 56.91352 8.98450 32949 ft 470 kts 141°
2026-05-04 11:29 56.86406 9.06259 32943 ft 469 kts 141°
2026-05-04 11:29 56.81453 9.14041 32947 ft 469 kts 141°
2026-05-04 11:33 56.46864 9.67617 32932 ft 466 kts 143°
2026-05-04 11:33 56.41922 9.75162 32572 ft 464 kts 143°
2026-05-04 11:34 56.39457 9.78914 32308 ft 463 kts 143°
2026-05-04 11:34 56.36994 9.82662 32049 ft 463 kts 143°
2026-05-04 11:34 56.34531 9.86399 31791 ft 462 kts 144°
2026-05-04 11:34 56.32102 9.90075 31544 ft 462 kts 144°
2026-05-04 11:35 56.29633 9.93810 31279 ft 462 kts 144°
2026-05-04 11:35 56.27171 9.97523 31028 ft 462 kts 144°
2026-05-04 11:35 56.24711 10.01226 30787 ft 461 kts 144°
2026-05-04 11:35 56.22252 10.04924 30539 ft 459 kts 144°
2026-05-04 11:36 56.19810 10.08594 30300 ft 457 kts 144°
2026-05-04 11:36 56.17371 10.12252 30054 ft 455 kts 144°
2026-05-04 11:36 56.15765 10.14654 29844 ft 454 kts 144°
2026-05-04 11:36 56.13346 10.18264 29547 ft 451 kts 144°
2026-05-04 11:37 56.10158 10.23011 29159 ft 448 kts 144°
2026-05-04 11:37 56.07768 10.26578 28894 ft 446 kts 144°
2026-05-04 11:37 56.05388 10.30123 28611 ft 444 kts 145°
2026-05-04 11:37 56.03022 10.33641 28333 ft 441 kts 146°
2026-05-04 11:38 56.01428 10.36008 28152 ft 440 kts 146°
2026-05-04 11:38 55.99077 10.39494 27871 ft 438 kts 146°
2026-05-04 11:38 55.96779 10.42892 27375 ft 433 kts 146°
2026-05-04 11:38 55.94466 10.46300 26792 ft 430 kts 145°
2026-05-04 11:39 55.92307 10.50027 26224 ft 434 kts 135°
2026-05-04 11:39 55.90537 10.54418 25664 ft 440 kts 123°
2026-05-04 11:40 55.85814 10.86222 22482 ft 436 kts 105°
2026-05-04 11:41 55.85164 10.91469 21973 ft 433 kts 105°
2026-05-04 11:41 55.84499 10.96673 21469 ft 430 kts 106°
2026-05-04 11:41 55.83783 11.01814 20964 ft 427 kts 107°
2026-05-04 11:41 55.83025 11.06903 20439 ft 425 kts 108°
2026-05-04 11:42 55.82247 11.11962 19923 ft 423 kts 108°
2026-05-04 11:42 55.81468 11.16983 19386 ft 421 kts 108°
2026-05-04 11:42 55.80698 11.21995 18852 ft 419 kts 108°
2026-05-04 11:42 55.79937 11.26998 18288 ft 418 kts 107°
2026-05-04 11:43 55.79189 11.31973 17744 ft 415 kts 108°
2026-05-04 11:43 55.78462 11.36832 17598 ft 400 kts 108°
2026-05-04 11:43 55.77761 11.41531 17460 ft 386 kts 108°
2026-05-04 11:43 55.77281 11.46154 17321 ft 376 kts 97°
2026-05-04 11:44 55.77047 11.50719 17136 ft 367 kts 97°
2026-05-04 11:44 55.76801 11.55208 16747 ft 363 kts 98°
2026-05-04 11:44 55.76550 11.59594 16366 ft 361 kts 98°
2026-05-04 11:44 55.76297 11.64017 15985 ft 359 kts 98°
2026-05-04 11:45 55.76045 11.68404 15618 ft 356 kts 98°
2026-05-04 11:45 55.75790 11.72766 15256 ft 354 kts 98°
2026-05-04 11:45 55.75534 11.77103 14889 ft 352 kts 98°
2026-05-04 11:45 55.75284 11.81408 14532 ft 350 kts 97°
2026-05-04 11:46 55.75038 11.85691 14186 ft 348 kts 97°
2026-05-04 11:46 55.74793 11.89941 13851 ft 345 kts 97°
2026-05-04 11:46 55.74546 11.94173 13495 ft 343 kts 98°
2026-05-04 11:46 55.74293 11.98363 13127 ft 340 kts 98°
2026-05-04 11:47 55.74040 12.02530 12757 ft 338 kts 97°
2026-05-04 11:47 55.73790 12.06666 12401 ft 336 kts 97°
2026-05-04 11:47 55.73547 12.10775 12050 ft 333 kts 97°
2026-05-04 11:47 55.73307 12.14841 11704 ft 331 kts 97°
2026-05-04 11:48 55.73063 12.18892 11344 ft 329 kts 97°
2026-05-04 11:48 55.72817 12.22915 10990 ft 327 kts 98°
2026-05-04 11:48 55.72575 12.26859 10705 ft 323 kts 97°
2026-05-04 11:48 55.72333 12.30812 10545 ft 314 kts 97°
2026-05-04 11:49 55.72094 12.34643 10271 ft 311 kts 98°
2026-05-04 11:49 55.71850 12.38443 9963 ft 309 kts 98°
2026-05-04 11:49 55.71607 12.42169 9654 ft 307 kts 98°
2026-05-04 11:49 55.71364 12.45925 9304 ft 306 kts 97°
2026-05-04 11:50 55.71290 12.49664 9067 ft 301 kts 84°
2026-05-04 11:50 55.71735 12.53257 8773 ft 297 kts 68°
2026-05-04 11:50 55.72616 12.56545 8445 ft 295 kts 60°
2026-05-04 11:50 55.73550 12.59781 8135 ft 293 kts 60°
2026-05-04 11:51 55.74493 12.62966 7825 ft 290 kts 55°
2026-05-04 11:51 55.75757 12.65704 7507 ft 284 kts 38°
2026-05-04 11:51 55.77236 12.68005 7195 ft 282 kts 37°
2026-05-04 11:51 55.78710 12.70294 6911 ft 280 kts 37°
2026-05-04 11:52 55.80155 12.72603 6613 ft 280 kts 43°
2026-05-04 11:52 55.81094 12.75597 6447 ft 279 kts 76°
2026-05-04 11:52 55.81055 12.78967 6322 ft 270 kts 109°
2026-05-04 11:52 55.80118 12.81740 6122 ft 258 kts 141°
2026-05-04 11:53 55.78634 12.83358 5820 ft 249 kts 161°
2026-05-04 11:53 55.77047 12.84605 5445 ft 251 kts 162°
2026-05-04 11:53 55.75364 12.85253 4958 ft 247 kts 191°
2026-05-04 11:53 55.73796 12.84249 4463 ft 239 kts 222°
2026-05-04 11:55 55.66900 12.73531 1592 ft 139 kts 227°
2026-05-04 11:55 55.66183 12.72344 1072 ft 140 kts 228°
2026-05-04 11:56 55.65485 12.71290 856 ft 127 kts 227°
2026-05-04 11:56 55.64817 12.70273 671 ft 127 kts 225°
2026-05-04 11:56 55.64160 12.69263 487 ft 125 kts 225°
2026-05-04 11:56 55.63504 12.68251 325 ft 125 kts 226°
2026-05-04 11:57 55.62852 12.67242 160 ft 124 kts 227°
2026-05-04 11:57 55.62209 12.66248 18 ft 116 kts 221°
2026-05-04 11:57 55.61777 12.65553 17 ft 42 kts 222°
2026-05-04 11:57 55.61706 12.65451 18 ft 10 kts 215°
2026-05-04 11:58 55.61617 12.65318 15 ft 20 kts 231°
2026-05-04 11:58 55.61602 12.65091 17 ft 19 kts 281°
2026-05-04 11:58 55.61671 12.64895 17 ft 19 kts 312°
2026-05-04 11:58 55.61793 12.64786 17 ft 21 kts 351°
2026-05-04 11:59 55.61935 12.64871 18 ft 24 kts 35°
2026-05-04 11:59 55.62082 12.65036 17 ft 27 kts 34°
2026-05-04 11:59 55.62247 12.65195 17 ft 27 kts
2026-05-04 11:59 55.62418 12.65202 17 ft 24 kts
2026-05-04 12:00 55.62574 12.65193 17 ft 22 kts 358°
2026-05-04 12:00 55.62704 12.65185 17 ft 15 kts 357°
2026-05-04 12:00 55.62735 12.65182 17 ft 0 kts 355°